Location: Newark
(27.9675°N, 86.8869°E)
Time: 21:09:47
(UTC+00:00)

Altair - Pass Details

Date: 25 October 2019
Orbit: 1502 x 1682 km, 47.2° (Epoch: 10 November)

Event Time Altitude Azimuth Distance (km) Brightness Sun altitude
Rises 04:21:15 0° 257° (WSW) 4,660 9.9 43.9°
Reaches altitude 10° 04:24:32 10° 265° (W) 3,698 9.4 44.2°
Maximum altitude 04:33:11 40° 332° (NNW) 2,161 8.3 45.2°
Drops below altitude 10° 04:42:10 10° 40° (NE) 3,832 9.5 46.2°
Sets 04:45:39 0° 48° (NE) 4,846 10.0 46.5°
